Zurück zum Katalog

PUJIANG 2

PJ-2

AktivWissenschaftSSO
NORAD 52151·PAYLOAD·🇨🇳 China

Gestartet Mar 29, 2022 von Taiyuan Satellite Launch Center

Loading…

Nächste Überflüge (nächste 24 Stunden)

TLE

AktuellSource: Space-Track

Epoche: Sep 14, 2026, 15:09 UTC

1 52151U 22031B   26257.63158373 -.00000320  00000-0 -24212-4 0  9992
2 52151  97.8623  83.2852 0010244 267.0721  92.9327 14.94396370243158

Verfolge PUJIANG 2 in Echtzeit mit AllMySat

Download on the App Store